266  
ASUS46 KLOX 140014  
RWRCA  
 
SOUTHERN CALIFORNIA WEATHER ROUNDUP  
NATIONAL WEATHER SERVICE OXNARD CALIFORNIA  
500 PM PDT MON JUL 13 2020  
 
NOTE: "FAIR" INDICATES FEW OR NO CLOUDS BELOW 12,000 FEET WITH NO  
SIGNIFICANT WEATHER AND/OR S TO VISIBILITY
.  
 
- STATIONS PRECEEDED BY AN ASTERISK (*) ARE NOT NWS OR FAA  
STATIONS AND ARE NOT SUBJECT TO NWS AND FAA QUALITY CONTROL.
 
 
CAZ041-042-087-140100-  
LA AND ORANGE COUNTY COASTAL AREAS  
 
 
CITY SKY/WX TMP DP RH WIND PRES REMARKS
 
L.A. DOWNTOWN SUNNY 80 63 55 VRB3 29.87S  
L.A. AIRPORT MOSUNNY 72 63 73 W14 29.89S  
LONG BEACH SUNNY 77 64 64 SE9 29.88F  
 
CITY SKY/WX TMP DP RH WIND PRES REMARKS
 
AVALON N/A 72 N/A N/A MISG N/A  
FULLERTON SUNNY 81 59 47 S9 29.87S  
HAWTHORNE SUNNY 76 64 66 SW10 29.88F  
*LEO CARRILLO N/A 72 61 67 W12 N/A  
*LOS ALAMITOS MOSUNNY 77 61 57 S5 29.89F  
*REDONDO BEACH N/A 77 64 65 W3 29.88S  
SANTA ANA MOSUNNY 77 63 61 SW15 29.88F  
STA MONICA APT SUNNY 73 63 70 SW9 29.89S  
*UCLA N/A N/A N/A N/A SW6 29.85F  
 

 
 
CAZ547-548-048-140100-  
LA COUNTY VALLEYS AND INLAND EMPIRE  
 
 
CITY SKY/WX TMP DP RH WIND PRES REMARKS
 
BURBANK SUNNY 86 59 39 S12 29.87F  
VAN NUYS SUNNY 89 47 23 S15 29.87S  
 
CITY SKY/WX TMP DP RH WIND PRES REMARKS
 
CORONA AIRPORT CLEAR 88 65 46 W17G29 29.84F HX 90  
*CHATSWORTH N/A 92 45 19 SE3 29.85S  
CHINO MOSUNNY 93 57 29 W17 29.87S HX 91  
*CLAREMONT N/A 89 58 34 W12 N/A  
MARCH AFB SUNNY 95 49 20 NW15 29.88F HX 91  
*NORTHRIDGE N/A 90 36 14 SE6G12 N/A  
ONTARIO MOSUNNY 93 49 22 SW17 29.87S HX 90  
*PASADENA N/A 90 61 37 CALM N/A  
POMONA SUNNY 88 59 37 SW12G17 29.89F  
RIVERSIDE SUNNY 91 57 31 W13G23 29.85F  
SAN BERNARDINO NOT AVBL  
*SAUGUS N/A 89 46 22 S15G28 N/A  
*WHITEMAN AP SUNNY 88 55 33 SE8 29.91F  
 

 
 
CAZ054-055-140100-  
LA AND SAN BERNARDINO COUNTY MOUNTAINS  
 
 
CITY SKY/WX TMP DP RH WIND PRES REMARKS
 
*ACTON N/A 95 30 10 SW12 N/A  
*BIG BEAR AIRP PTCLDY 75 32 20 SW9G16 30.26F  
*BIG PINES N/A 76 31 19 NW3 N/A  
*CHILAO N/A 84 24 11 SW10G22 N/A  
SANDBERG SUNNY 83 50 31 S15 30.08S  
*WARM SPRINGS N/A 88 46 22 SW6G18 N/A  
 

 
 
CAZ028-029-059-060-099-140100-  
ANTELOPE VALLEY AND SURROUNDING AREAS  
 
 
CITY SKY/WX TMP DP RH WIND PRES REMARKS
 
LANCASTER SUNNY 95 38 13 SW17G30 29.89S HX 90  
PALMDALE SUNNY 96 28 9 SW22 29.90F HX 90  
*POPPY PARK N/A 91 49 23 SW21G33 N/A  
 
CITY SKY/WX TMP DP RH WIND PRES REMARKS
 
29 PALMS SUNNY 105 43 12 SW23G36 29.84F HX 100  
BARSTOW/DAGGET SUNNY 107 38 9 SW23G33 29.78F HX 101  
BISHOP MOSUNNY 105 36 9 SE7 29.81F HX 99  
CHINA LAKE SUNNY 107 19 4 SW22G31 29.77S HX 98  
EDWARDS AFB MOSUNNY 99 33 10 SW24G32 29.83F HX 93  
MOJAVE SUNNY 99 30 9 W17G29 29.89S HX 92  
NEEDLES PTSUNNY 117 35 6 SW21 29.65F HX 108  
VICTORVILLE SUNNY N/A N/A N/A S17 29.90F  
 

 
 
CAZ039-040-140100-  
VENTURA AND SANTA BARBARA COUNTY COAST  
 
 
CITY SKY/WX TMP DP RH WIND PRES REMARKS
 
CAMARILLO SUNNY 74 58 57 W13 29.88F  
NWS OXNARD N/A 73 55 53 SW9 29.87F  
OXNARD AIRPORT SUNNY 68 58 70 W18G26 29.89F  
*POINT MUGU MOSUNNY 70 58 65 W14 29.90F  
SBA APT/GOLETA SUNNY 72 58 61 SW8 29.89F  
*SANTA BARBARA N/A 76 57 51 CALM 29.96S  
*VENTURA N/A 66 61 82 MISG N/A  
 

 
 
CAZ044-045-140100-  
VENTURA COUNTY VALLEYS  
 
 
CITY SKY/WX TMP DP RH WIND PRES REMARKS
 
*SIMI VALLEY N/A 83 64 52 W6 29.80S  
*N 1000 OAKS N/A 79 64 59 N3 29.87S  
*TO CIVIC ARTS N/A 82 61 47 N5G10 N/A  
*WESTLAKE VILL N/A 82 63 51 CALM 29.86F  
*OJAI N/A 89 58 35 CALM 29.79S  
*FILLMORE N/A 83 64 52 SW3 29.89S  
 

 
 
CAZ053-140100-  
VENTURA COUNTY MOUNTAINS  
 
 
CITY SKY/WX TMP DP RH WIND PRES REMARKS
 
*LOCKWOOD VLY N/A 91 30 11 NW3G13 N/A  
*FRAZIER MTN N/A 73 44 35 SW1 29.76S  
*ROSE VALLEY N/A 81 55 41 MISG N/A  
 

 
 
CAZ034-035-036-140100-  
CENTRAL COAST AND SANTA YNEZ VALLEY  
 
 
CITY SKY/WX TMP DP RH WIND PRES REMARKS
 
SAN LUIS OBISP SUNNY 71 54 54 SE3 29.93S  
SANTA MARIA SUNNY 65 53 65 NW14 29.95F  
 
CITY SKY/WX TMP DP RH WIND PRES REMARKS
 
*CAL POLY SLO N/A 70 57 64 SW7 N/A  
*LOMPOC N/A 64 54 69 W13G20 29.96S  
*PISMO BEACH N/A 64 51 63 W2 29.92F  
*SANTA YNEZ FAIR 77 52 41 W13 29.91S  
 

 
 
CAZ037-038-051-140100-  
SAN LUIS OBISPO COUNTY INTERIOR AND CUYAMA VALLEY  
 
 
CITY SKY/WX TMP DP RH WIND PRES REMARKS
 
*CUYAMA N/A 94 31 11 W14 29.69F  
PASO ROBLES SUNNY 81 51 35 S24 29.85S  
 

 
 
CAZ032-033-061-140100-  
SOUTHERN DESERTS  
 
 
CITY SKY/WX TMP DP RH WIND PRES REMARKS
 
BLYTHE PTSUNNY 114 46 10 S14 29.67F HX 109  
IMPERIAL MOSUNNY 111 53 14 W17 29.64F HX 109  
PALM SPRINGS MOSUNNY 114 43 9 NW20G28 29.69F HX 108  
THERMAL MOSUNNY 114 46 10 NW13G25 29.61F HX 109  
 

 
 
ELSEWHERE ACROSS THE WESTERN UNITED STATES AND MEXICO  
 
 
CITY SKY/WX TMP DP RH WIND PRES REMARKS
 
DENVER, CO PTSUNNY 86 49 27 NE16G28 29.91R  
GRAND CANYON, MOSUNNY 87 41 19 SW15G28 30.17F  
HONOLULU, HI PTSUNNY 88 63 42 NE14G24 29.95  
KAHULUI, MAUI MOSUNNY 90 61 37 NE24G32 29.93F  
LAKE TAHOE, CA LGT RAIN 81 34 18 S14G30 30.12S  
LAS VEGAS, NV MOSUNNY 108 36 8 W20G26 29.73F HX 101  
MAMMOTH LAKES, FAIR 86 34 15 SW18G29 30.15F  
MEXICO CITY, M LGT RAIN 70 45 40 E12G23 30.28  
PHOENIX, AZ PTSUNNY 109 52 15 SW14 29.72F HX 107  
PORTLAND, OR MOSUNNY 80 44 27 N10 30.03F  
RENO, NV SUNNY 92 32 12 W21G29 29.94S  
SALT LAKE CITY MOSUNNY 91 31 11 N13G18 29.87F  
SAN DIEGO, CA MOSUNNY 74 62 66 W8 29.92F  
SAN FRANCISCO, MOSUNNY 67 51 56 W18G24 29.87F  
SAN JOSE, CA SUNNY 77 55 46 N15 29.85F  
SEATTLE, WA MOSUNNY 75 45 34 N10 30.11F  
TIJUANA, MEX MOSUNNY 77 64 65 NW10 29.93F  
 

 
 
STATION/POSITION TIME TEMP WIND PRES VSBY WAVE
 
AIR SEA DIR/SP/G HT/PER  
(UTC) (F) (DEG/KT/KT) (MB) (MI) (FT/S)  
WEST SANTA BARBA 2350 58 1013.7R  
EAST SANTA BARBA 0000 61 260/ 16/ 17 1013.0  
SANTA MONICA BAY 0000 67 290/ 10/ 14 1012.2  
SAN CLEMENTE BAS 0000 66 1012.5  
 
CLICK HERE TO GO TO PREVIOUS BULLETINS.

The Nexlab CA Page Main Text Page